ELECTRON R/B

Last updated on Sat Dec 06 2025 00:02:05 GMT+0000 (Coordinated Universal Time)

1 66317U 25252B 25338.67326838 .04912432 83157-5 15552-2 0 9997 2 66317 41.9851 99.2617 0062158 80.1526 280.6353 16.20080139 4552

Satellite not in orbit